When you browse on this site, cookies collect data to enhance your experience and personalize the content and advertising you see.
Visit our Privacy Policy to learn more. By continuing to use the site, you agree to this use of cookies and data.
  • In United Kingdom
  • List of Countries
  • For 7 days
  • Water Temperature
  • Satellite Maps
  • Weather Map
  • Weather Widgets
  • user-avatar
    Login

    Hourly Weather Bindura

    Today, 26 May, Sunday

    Time Temperature Precipitation Wind Pressure Humidity
    00:00 +13°C° 0 mm 0 mps 671 mmHg 77%
    01:00 +13°C° 0 mm 1 mps 671 mmHg 79%
    02:00 +13°C° 0 mm 1 mps 671 mmHg 80%
    03:00 +12°C° 0 mm 1 mps 671 mmHg 82%
    04:00 +12°C° 0 mm 1 mps 671 mmHg 83%
    05:00 +11°C° 0 mm 0 mps 671 mmHg 85%
    06:00 +12°C° 0 mm 0 mps 671 mmHg 78%
    07:00 +14°C° 0 mm 0 mps 672 mmHg 71%
    08:00 +16°C° 0 mm 0 mps 672 mmHg 63%
    09:00 +20°C° 0 mm 1 mps 673 mmHg 56%
    10:00 +23°C° 0 mm 1 mps 673 mmHg 49%
    11:00 +25°C° 0 mm 1 mps 674 mmHg 42%
    12:00 +25°C° 0 mm 1 mps 673 mmHg 39%
    13:00 +26°C° 0 mm 1 mps 673 mmHg 37%
    14:00 +27°C° 0 mm 1 mps 672 mmHg 34%
    15:00 +25°C° 0 mm 1 mps 672 mmHg 38%
    16:00 +23°C° 0 mm 1 mps 671 mmHg 42%
    17:00 +22°C° 0 mm 1 mps 670 mmHg 46%
    18:00 +21°C° 0 mm 1 mps 671 mmHg 50%
    19:00 +20°C° 0 mm 1 mps 671 mmHg 53%
    20:00 +19°C° 0 mm 1 mps 671 mmHg 57%
    21:00 +18°C° 0 mm 1 mps 671 mmHg 63%
    22:00 +16°C° 0 mm 1 mps 671 mmHg 68%
    23:00 +15°C° 0 mm 1 mps 671 mmHg 74%

    Tomorrow, 27 May, Monday

    Time Temperature Precipitation Wind Pressure Humidity
    00:00 +13°C° 0 mm 0 mps 671 mmHg 77%
    01:00 +13°C° 0 mm 0 mps 670 mmHg 81%
    02:00 +12°C° 0 mm 0 mps 670 mmHg 84%
    03:00 +12°C° 0 mm 0 mps 670 mmHg 86%
    04:00 +11°C° 0 mm 0 mps 670 mmHg 88%
    05:00 +11°C° 0 mm 0 mps 670 mmHg 90%
    06:00 +12°C° 0 mm 0 mps 671 mmHg 83%
    07:00 +14°C° 0 mm 0 mps 671 mmHg 75%
    08:00 +16°C° 0 mm 0 mps 672 mmHg 68%
    09:00 +20°C° 0 mm 1 mps 673 mmHg 59%
    10:00 +23°C° 0 mm 1 mps 673 mmHg 51%
    11:00 +25°C° 0 mm 1 mps 674 mmHg 43%
    12:00 +26°C° 0 mm 1 mps 673 mmHg 39%
    13:00 +26°C° 0 mm 1 mps 672 mmHg 36%
    14:00 +27°C° 0 mm 2 mps 671 mmHg 33%
    15:00 +25°C° 0 mm 1 mps 671 mmHg 37%
    16:00 +24°C° 0 mm 1 mps 670 mmHg 40%
    17:00 +23°C° 0 mm 1 mps 670 mmHg 44%
    18:00 +21°C° 0 mm 1 mps 670 mmHg 49%
    19:00 +19°C° 0 mm 1 mps 670 mmHg 53%
    20:00 +16°C° 0 mm 1 mps 670 mmHg 57%
    21:00 +15°C° 0 mm 1 mps 670 mmHg 61%
    22:00 +15°C° 0 mm 1 mps 670 mmHg 65%
    23:00 +13°C° 0 mm 0 mps 670 mmHg 69%

    Day after tomorrow, 28 May, Tuesday

    Time Temperature Precipitation Wind Pressure Humidity
    00:00 +12°C° 0 mm 0 mps 670 mmHg 72%
    01:00 +12°C° 0 mm 0 mps 670 mmHg 75%
    02:00 +11°C° 0 mm 0 mps 669 mmHg 78%
    03:00 +11°C° 0 mm 0 mps 669 mmHg 80%
    04:00 +11°C° 0 mm 0 mps 669 mmHg 83%
    05:00 +10°C° 0 mm 0 mps 669 mmHg 85%
    06:00 +12°C° 0 mm 0 mps 670 mmHg 78%
    07:00 +14°C° 0 mm 0 mps 671 mmHg 70%
    08:00 +15°C° 0 mm 0 mps 672 mmHg 63%
    09:00 +18°C° 0 mm 0 mps 672 mmHg 56%
    10:00 +22°C° 0 mm 1 mps 672 mmHg 48%
    11:00 +25°C° 0 mm 1 mps 673 mmHg 41%
    12:00 +25°C° 0 mm 1 mps 672 mmHg 38%
    13:00 +26°C° 0 mm 2 mps 671 mmHg 34%
    14:00 +27°C° 0 mm 2 mps 670 mmHg 31%
    15:00 +25°C° 0 mm 2 mps 670 mmHg 34%
    16:00 +24°C° 0 mm 1 mps 669 mmHg 37%
    17:00 +22°C° 0 mm 1 mps 669 mmHg 40%
    18:00 +21°C° 0 mm 1 mps 669 mmHg 43%
    19:00 +19°C° 0 mm 1 mps 669 mmHg 45%
    20:00 +16°C° 0 mm 1 mps 669 mmHg 48%
    21:00 +15°C° 0 mm 1 mps 669 mmHg 51%
    22:00 +14°C° 0 mm 1 mps 669 mmHg 54%
    23:00 +13°C° 0 mm 0 mps 669 mmHg 57%

    29 May, Wednesday

    Time Temperature Precipitation Wind Pressure Humidity
    00:00 +12°C° 0 mm 0 mps 669 mmHg 61%
    01:00 +12°C° 0 mm 0 mps 669 mmHg 65%
    02:00 +11°C° 0 mm 0 mps 669 mmHg 69%
    03:00 +11°C° 0 mm 0 mps 669 mmHg 73%
    04:00 +11°C° 0 mm 0 mps 669 mmHg 77%
    05:00 +10°C° 0 mm 0 mps 669 mmHg 81%
    06:00 +12°C° 0 mm 0 mps 670 mmHg 75%
    07:00 +14°C° 0 mm 0 mps 671 mmHg 69%
    08:00 +16°C° 0 mm 0 mps 672 mmHg 63%
    09:00 +20°C° 0 mm 1 mps 672 mmHg 54%
    10:00 +23°C° 0 mm 1 mps 672 mmHg 46%
    11:00 +25°C° 0 mm 1 mps 673 mmHg 37%
    12:00 +26°C° 0 mm 1 mps 672 mmHg 35%
    13:00 +27°C° 0 mm 1 mps 671 mmHg 32%
    14:00 +27°C° 0 mm 1 mps 670 mmHg 30%
    15:00 +26°C° 0 mm 1 mps 670 mmHg 34%
    16:00 +24°C° 0 mm 1 mps 670 mmHg 38%
    17:00 +23°C° 0 mm 1 mps 669 mmHg 41%
    18:00 +22°C° 0 mm 1 mps 669 mmHg 44%
    19:00 +20°C° 0 mm 1 mps 670 mmHg 48%
    20:00 +19°C° 0 mm 1 mps 670 mmHg 51%
    21:00 +18°C° 0 mm 1 mps 670 mmHg 55%
    22:00 +16°C° 0 mm 1 mps 670 mmHg 59%
    23:00 +15°C° 0 mm 1 mps 670 mmHg 63%

    30 May, Thursday

    Time Temperature Precipitation Wind Pressure Humidity
    00:00 +15°C° 0 mm 1 mps 670 mmHg 68%
    01:00 +13°C° 0 mm 0 mps 669 mmHg 73%
    02:00 +12°C° 0 mm 0 mps 669 mmHg 78%
    03:00 +12°C° 0 mm 0 mps 669 mmHg 81%
    04:00 +12°C° 0 mm 0 mps 669 mmHg 84%
    05:00 +11°C° 0 mm 0 mps 669 mmHg 87%
    06:00 +13°C° 0 mm 0 mps 670 mmHg 81%
    07:00 +15°C° 0 mm 0 mps 671 mmHg 75%
    08:00 +16°C° 0 mm 0 mps 672 mmHg 69%
    09:00 +20°C° 0 mm 1 mps 672 mmHg 61%
    10:00 +23°C° 0 mm 1 mps 672 mmHg 53%
    11:00 +25°C° 0 mm 2 mps 672 mmHg 46%
    12:00 +25°C° 0 mm 1 mps 671 mmHg 43%
    13:00 +26°C° 0 mm 1 mps 671 mmHg 40%
    14:00 +27°C° 0 mm 1 mps 670 mmHg 37%
    15:00 +26°C° 0 mm 1 mps 670 mmHg 41%
    16:00 +22°C° 0 mm 0 mps 669 mmHg 44%
    17:00 +20°C° 0 mm 0 mps 669 mmHg 48%
    18:00 +20°C° 0 mm 0 mps 669 mmHg 50%
    19:00 +19°C° 0 mm 0 mps 669 mmHg 51%
    20:00 +18°C° 0 mm 0 mps 670 mmHg 53%
    21:00 +17°C° 0 mm 0 mps 670 mmHg 56%
    22:00 +17°C° 0 mm 0 mps 669 mmHg 58%
    23:00 +16°C° 0 mm 0 mps 669 mmHg 61%

    31 May, Friday

    Time Temperature Precipitation Wind Pressure Humidity
    00:00 +15°C° 0 mm 0 mps 669 mmHg 65%
    01:00 +14°C° 0 mm 0 mps 669 mmHg 68%
    02:00 +14°C° 0 mm 0 mps 668 mmHg 72%
    03:00 +13°C° 0 mm 0 mps 668 mmHg 76%
    04:00 +13°C° 0 mm 0 mps 669 mmHg 79%
    05:00 +12°C° 0 mm 0 mps 669 mmHg 83%
    06:00 +14°C° 0 mm 0 mps 669 mmHg 77%
    07:00 +15°C° 0 mm 0 mps 670 mmHg 72%
    08:00 +17°C° 0 mm 0 mps 671 mmHg 66%
    09:00 +19°C° 0 mm 0 mps 671 mmHg 58%
    10:00 +24°C° 0 mm 1 mps 671 mmHg 50%
    11:00 +26°C° 0 mm 1 mps 672 mmHg 41%
    12:00 +27°C° 0 mm 1 mps 671 mmHg 39%
    13:00 +27°C° 0 mm 1 mps 670 mmHg 36%
    14:00 +28°C° 0 mm 1 mps 670 mmHg 33%
    15:00 +26°C° 0 mm 1 mps 669 mmHg 37%
    16:00 +25°C° 0 mm 1 mps 669 mmHg 40%
    17:00 +23°C° 0 mm 1 mps 669 mmHg 44%
    18:00 +20°C° 0 mm 0 mps 669 mmHg 47%
    19:00 +18°C° 0 mm 0 mps 669 mmHg 51%
    20:00 +17°C° 0 mm 0 mps 669 mmHg 55%
    21:00 +17°C° 0 mm 0 mps 669 mmHg 54%
    22:00 +17°C° 0 mm 0 mps 669 mmHg 53%
    23:00 +17°C° 0 mm 0 mps 670 mmHg 53%
    Show more